User: anonymous   Login
Location: PFO Observatory
(45.2937°N, 66.0991°W)
Time: 18:27:58
(UTC-03:00)
Language:

Cosmos 1151 Rocket - Orbit

View from above orbital plane
View from above orbital plane
View from above satellite
View from above satellite

Ground track
Ground track

The orbit data is extracted from the following two-line orbital elements,

1 11672U 80005B   15245.72436878 +.00000202 +00000-0 +19454-4 0  9993
2 11672 082.5185 336.0613 0016009 330.8544 029.1778 14.87649505905112
Epoch (UTC): 02 September 2015 17:23:05
Eccentricity: 0.0016009
inclination: 82.5185°
perigee height: 594 km
apogee height: 616 km
right ascension of ascending node: 336.0613°
argument of perigee: 330.8544°
revolutions per day: 14.87649505
mean anomaly at epoch: 29.1778°
orbit number at epoch: 90511

The dashed part of the orbit path shows where the satellite is in the earth's shadow,  

DLR